Regional Weather Roundup
Issued by NWS

Home | Current Version | Previous Version | Graphics & Text | Print | Product List | Glossary On
Versions: 1 2 3 4 5 6 7 8 9 10 11 12 13 14 15 16 17 18 19 20 21 22 23 24 25 26 27 28 29 30 31 32 33 34 35 36 37 38 39 40 41 42 43 44 45 46 47 48 49 50
000
ASUS43 KBIS 230620
RWRND

NORTH DAKOTA REGIONAL WEATHER ROUNDUP
NATIONAL WEATHER SERVICE BISMARCK ND
100 AM CDT THU OCT 23 2014

NOTE: "FAIR" INDICATES FEW OR NO CLOUDS BELOW 12,000 FEET WITH NO
SIGNIFICANT WEATHER AND/OR OBSTRUCTIONS TO VISIBILITY.


NDZ001>003-009>011-017-230700-
NORTHWEST NORTH DAKOTA

CITY           SKY/WX    TMP DP  RH WIND       PRES   REMARKS
WILLISTON      CLEAR     40  31  70 CALM      29.86F
6HR MIN TEMP:  40; 6HR MAX TEMP:  57;

MINOT          CLEAR     50  36  58 SW13      29.83S
MINOT AFB      CLEAR     46  39  76 W9        29.82F
$$

NDZ018>021-031>035-040>046-230700-
SOUTHWEST NORTH DAKOTA

CITY           SKY/WX    TMP DP  RH WIND       PRES   REMARKS
BISMARCK       CLEAR     43  34  70 SW5       29.92S
6HR MIN TEMP:  39; 6HR MAX TEMP:  60;

DICKINSON      CLEAR     42  30  62 W5        29.91F
GARRISON         N/A     45  38  76 W10       29.87S
6HR MIN TEMP:  41; 6HR MAX TEMP:  58;

HETTINGER ARPT CLEAR     32  27  81 CALM      29.97S
$$

NDZ004>008-012>016-024-026-027-054-230700-
NORTHEAST NORTH DAKOTA

CITY           SKY/WX    TMP DP  RH WIND       PRES   REMARKS
GRAND FORKS    CLEAR     46  45  96 SW7       29.84S
GRND FRKS AFB  FAIR      45  45 100 SW10      29.85S
DEVILS LAKE    CLOUDY    54  43  66 SW9       29.82F
$$

NDZ022-023-025-028>030-036>039-047>053-230700-
SOUTHEAST NORTH DAKOTA

CITY           SKY/WX    TMP DP  RH WIND       PRES   REMARKS
FARGO          CLEAR     51  48  89 SW10      29.89S
6HR MIN TEMP:  49; 6HR MAX TEMP:  56;

JAMESTOWN      CLEAR     44  39  82 SW7       29.89S
$$




USA.gov is the U.S. government's official web portal to all federal, state and local government web resources and services.